Regional Weather Roundup
Issued by NWS Jackson, KY

Home | Current Version | Previous Version | Graphics & Text | Print | Product List | Glossary Off
Versions: 1 2 3 4 5 6 7 8 9 10 11 12 13 14 15 16 17 18 19 20 21 22 23 24 25 26 27 28 29 30 31 32 33 34 35 36 37 38 39 40 41 42 43 44 45 46 47 48 49 50

000
ASUS43 KJKL 012319
RWRJKL

EAST KENTUCKY HOURLY WEATHER ROUNDUP
NATIONAL WEATHER SERVICE JACKSON KY
600 PM EST SUN FEB 01 2015

NOTE: "FAIR" INDICATES FEW OR NO CLOUDS BELOW 12,000 FEET WITH
NO SIGNIFICANT WEATHER AND/OR OBSTRUCTIONS TO VISIBILITY.

* THESE REPORTS ARE NOT UNDER NWS QUALITY CONTROL AND MAY NOT
  REPORT WEATHER SUCH AS PRECIPITATION AND FOG.

KYZ079-080-083-085-087-088-110-112-115-119-120-020000
...EASTERN KENTUCKY...

CITY           SKY/WX    TMP DP  RH WIND       PRES   REMARKS
JACKSON        LGT RAIN  46  44  93 VRB7      29.70F
LONDON         RAIN      48  44  86 S10       29.70F FOG
SOMERSET*      LGT RAIN  46  46 100 S8        29.70F
MONTICELLO*    CLOUDY    51  48  89 S16       29.70F FOG
MIDDLESBORO*   DRIZZLE   45  42  88 S5        29.80F
HARLAN APT*    CLOUDY    41  37  87 NE6       29.79F
HAZARD APT*    RAIN      46  45  93 S9        29.73F
BLACK MTN*       N/A     36  37 100 S7          N/A  WCI  30
PIKEVILLE APT* RAIN      43  41  93 S13       29.74F
BIG SANDY*     LGT RAIN  45  41  88 S10       29.75F
MOREHEAD APT*  LGT RAIN  45  43  93 S10       29.68F
ASHLAND*       CLOUDY    43  43 100 SE7       29.68F
$$

KYZ035-036-041-042-044-050-067-078-099-020000
...CENTRAL KENTUCKY...

CITY           SKY/WX    TMP DP  RH WIND       PRES   REMARKS
MT STERLING*   RAIN      45  45 100 SW16G22   29.66F
FLEMING/MASON* DRIZZLE   42  41  96 S13       29.65F
DANVILLE*      LGT RAIN  45  45 100 SW13      29.66F
RICHMOND*      CLOUDY    48  45  87 S14G21    29.64F
LEXINGTON      LGT RAIN  46  44  93 S14       29.62F FOG
FRANKFORT      LGT RAIN  46  44  93 S8        29.60F
$$

KYZ091>093-OHZ055-061-077-WVZ005-015-034-035-042-020000
...SOUTHERN OHIO/WEST VIRGINIA...

CITY           SKY/WX    TMP DP  RH WIND       PRES   REMARKS
COVINGTON      LGT RAIN  44  42  93 S14       29.59F FOG
COLUMBUS       CLOUDY    35  33  92 SE12      29.66F FOG     WCI  27
DAYTON         LGT RAIN  41  40  96 S13       29.59F FOG
WILMINGTON     LGT RAIN  39  37  92 S15       29.59F FOG     WCI  31
HUNTINGTON     LGT RAIN  44  41  89 S7        29.71F
CHARLESTON     LGT RAIN  44  38  79 SE7       29.76F
PINEVILLE*     LGT RAIN  43  41  93 MISG      29.85F
BECKLEY        LGT RAIN  39  33  79 S14       29.82F WCI  31
BLUEFIELD      LGT RAIN  43  32  65 S8        29.85F
$$

VAZ002-007-008-TNZ017-027-036-066-071-020000
...SOUTHWEST VIRGINIA/EAST TENNESSEE...

CITY           SKY/WX    TMP DP  RH WIND       PRES   REMARKS
WISE*          RAIN      43  37  81 S14       29.79F
JONESVILLE*    LGT RAIN  39  39 100 CALM      29.83F
ABINGDON*      DRIZZLE   49  40  72 SW5       29.83F
BRISTOL        LGT RAIN  50  43  77 SE3       29.84F
KNOXVILLE      LGT RAIN  44  42  93 VRB3      29.79F
OAK RIDGE      LGT RAIN  44  43  96 W5        29.81F FOG
CROSSVILLE     LGT RAIN  48  45  89 S8G17     29.75F FOG
NASHVILLE      HVY RAIN  55  53  93 S12G20    29.67F FOG
$$

...KEY TO REMARKS...
VSB - VISIBILITY IN MILES
WCI - WIND CHILL INDEX
HX  - HEAT INDEX

$$


USA.gov is the U.S. government's official web portal to all federal, state and local government web resources and services.